Location: Bauffe
(50.5686°N, 3.8519°E)
Time: 09:07:50
(UTC+00:00)

Daily predictions for brighter satellites

Satellite Brightness Start Highest point End
(mag) Time Altitude Azimuth Time Altitude Azimuth Time Altitude Azimuth
Cosmos 2123 Rocket 4.2 17:15:51 10° SSE 17:22:00 56° E 17:28:08 10° NNE
Okean 1 Rocket 4.0 17:21:41 10° N 17:25:26 26° ENE 17:29:09 10° SE
COSMOS 2428 2.9 17:21:45 10° NNW 17:27:25 55° NE 17:33:01 10° SE
SMAP 4.1 17:26:16 10° S 17:30:48 52° W 17:35:23 10° NNW
Cosmos 1980 4.4 17:25:49 10° NNW 17:30:56 33° NE 17:35:59 10° ESE
Sich 1 Rocket 4.5 17:27:32 10° N 17:31:32 29° ENE 17:35:30 10° SE
ARIANE 5 R/B 2.7 17:28:08 10° SSE 17:33:16 79° WSW 17:38:22 10° NNW
Cosmos 2237 Rocket 2.9 17:31:25 10° NNW 17:36:34 33° NE 17:41:41 10° ESE
Cosmos 2322 Rocket 4.4 17:31:42 10° NW 17:36:37 32° WSW 17:41:29 10° SSW
Aureole 3 Rocket 4.0 17:33:14 10° N 17:36:50 23° ENE 17:39:46 10° ESE
Cosmos 158 Rocket 4.2 17:32:30 10° S 17:37:04 43° ESE 17:41:41 10° NE
ATLAS 5 CENTAUR R/B 2.1 17:34:01 10° NW 17:38:11 68° SW 17:43:21 10° SSE
Cosmos 192 4.4 17:33:44 10° NNW 17:38:33 56° ENE 17:43:21 10° SE
Meteor 1-28 Rocket 4.5 17:35:56 10° N 17:39:01 37° WNW 17:42:06 10° SW
SeaSat 1 2.8 17:35:33 10° SSE 17:40:25 69° WSW 17:45:20 10° NW
Cosmos 1378 Rocket 3.6 17:36:14 10° S 17:40:26 53° E 17:44:38 10° NNE
ARIANE 6 FM1 Upper Stage 4.5 17:38:42 10° NNW 17:41:20 17° N 17:43:59 10° NE
USA 234 4.3 17:35:28 10° SSE 17:41:45 48° SW 17:48:05 10° WNW
Resurs 01 Rocket 2.5 17:38:05 10° ESE 17:41:51 28° ENE 17:45:37 10° N
SKYMED 2 3.7 17:38:36 10° NNE 17:42:52 51° E 17:47:06 10° S
Cosmos 1459 Rocket 4.4 17:36:48 10° NNW 17:42:59 73° W 17:49:14 10° S
GP-B 3.0 17:40:09 10° S 17:44:30 76° E 17:48:53 10° N
Cosmos 2219 Rocket 3.4 17:41:07 10° NW 17:46:26 46° WSW 17:51:43 10° S
COSMO-SKYMED 1 3.1 17:43:21 10° NNE 17:47:07 33° E 17:50:51 10° SSE
Cosmos 2292 Rocket 2.5 17:47:00 10° S 17:49:52 89° W 17:52:55 10° N
CZ-4 R/B 4.4 17:46:43 10° SSE 17:50:42 87° WSW 17:54:42 10° NNW
PSLV R/B 3.8 17:47:41 10° SE 17:51:35 43° ENE 17:55:30 10° N
Cosmos 2322 3.7 17:45:57 10° NNW 17:51:43 86° ENE 17:57:26 10° SSE
NOSS 3-3 (A) 4.2 17:46:59 10° S 17:51:46 40° ESE 17:57:23 10° NE
USA 306 1.4 17:50:28 10° WNW 17:53:32 85° SSW 17:55:02 17° ESE
IRS-P3 4.4 17:48:40 10° SSE 17:53:59 77° WSW 17:59:20 10° NNW
Cosmos 2016 Rocket 4.0 17:47:44 10° N 17:53:59 90° ENE 18:00:18 10° S
Resurs 1-3 3.5 17:50:59 10° SSE 17:55:16 76° ENE 17:59:35 10° N
Cosmos 1802 Rocket 4.3 17:50:57 10° NNW 17:57:20 75° W 18:03:44 10° S
Cosmos 2285 Rocket 4.2 17:52:17 10° NNW 17:58:37 54° ENE 18:04:52 10° SE
Cosmos 1025 Rocket 3.3 17:54:40 10° SSE 17:58:46 46° E 18:02:56 10° NNE
Cosmos 2242 Rocket 3.8 17:54:34 10° SSW 17:58:56 74° W 18:03:20 10° N
SJ-7 4.2 17:55:43 10° SSE 17:59:19 56° ENE 18:02:57 10° N
SL-16 R/B 3.6 17:55:30 10° NNW 17:59:40 20° NE 18:02:26 15° ENE
SPOT 1/Viking Rocket 4.1 17:59:08 10° S 18:04:12 63° WSW 18:09:19 10° NNW
Cosmos 2227 Rocket 3.9 18:02:00 10° ESE 18:03:35 13° ESE 18:03:35 13° ESE
SJ-6B 3.3 18:05:32 10° SE 18:08:33 29° ENE 18:11:34 10° N
NOSS 3-4 (A) 4.0 18:02:22 10° NW 18:08:38 52° NE 18:15:10 13° ESE
NOSS 3-4 (C) 4.0 18:02:37 10° NW 18:08:55 52° NE 18:15:23 14° ESE
Cosmos 2233 Rocket 4.0 18:03:39 10° N 18:09:58 89° E 18:16:16 10° S
SPOT 5 4.0 18:08:21 17° E 18:10:38 23° ENE 18:14:35 10° N
CZ-2D R/B 3.3 18:09:15 10° SSE 18:13:09 86° WSW 18:17:09 10° NNW
Cosmos 1674 Rocket 3.5 18:10:33 10° S 18:14:55 83° E 18:19:23 10° NNE
Cosmos 1315 Rocket 3.4 18:12:15 10° NNW 18:15:59 56° W 18:19:42 10° S
Meteor 1-11 4.2 18:12:43 10° S 18:18:20 89° W 18:24:06 10° NNE
Cosmos 1867 3.8 18:17:13 10° SW 18:22:39 74° NW 18:27:56 11° NE
SL-16 R/B 4.5 18:18:46 10° N 18:23:51 28° NW 18:28:55 10° WSW
Cosmos 2061 Rocket 4.1 18:18:43 10° N 18:25:09 83° W 18:31:28 10° S
ATLAS 2AS CENTAUR R/B 3.9 18:18:55 10° W 18:25:11 35° NNW 18:31:15 10° NE
Cosmos 724 4.4 18:19:10 10° SW 18:25:22 86° NW 18:31:22 11° NE
Lacrosse 5 rocket 1.3 18:23:04 10° WSW 18:26:32 60° NNW 18:28:21 26° NE
CZ-4 R/B 3.1 18:28:09 16° NNE 18:28:09 16° NNE 18:29:22 10° NNE
CZ-4B R/B 4.4 18:26:45 21° ENE 18:27:11 21° NE 18:31:01 10° N
Cosmos 2151 Rocket 4.5 18:26:29 10° NNW 18:30:52 53° W 18:35:14 10° S
Meteor 2-1 Rocket 4.5 18:25:13 10° NNW 18:31:00 78° W 18:36:52 10° S
Meteor 1-31 Rocket 3.9 18:32:59 23° NE 18:32:59 23° NE 18:34:50 10° N
CZ-4C R/B 1.7 18:27:52 10° SW 18:32:09 80° SE 18:36:09 18° NE
Radarsat Rocket 4.3 18:29:23 10° S 18:35:12 70° WSW 18:41:27 10° NNW
IRAS Rocket 4.2 18:29:38 10° SSE 18:35:13 73° ENE 18:40:51 10° NNW
CARTOSAT-1 3.7 18:31:03 10° S 18:35:15 74° WSW 18:39:28 10° NNW
CRYOSAT 2 4.3 18:32:28 10° N 18:37:19 61° E 18:42:09 10° S
NOSS 0 Rocket 4.3 18:31:16 10° NW 18:37:29 69° WSW 18:43:40 10° SSE
USA 290 3.7 18:37:07 10° SW 18:40:06 36° WNW 18:43:01 11° N
Cosmos 1464 Rocket 4.1 18:39:17 10° N 18:45:34 55° ENE 18:51:45 10° SSE
USA 267 3.6 18:41:48 21° ENE 18:46:16 58° NNW 18:52:39 10° W
CSL-04 Debris 4.4 18:44:38 25° ESE 18:47:21 45° ENE 18:52:30 10° N
ERS-1 Rocket 4.2 18:48:49 24° NE 18:48:49 24° NE 18:51:58 10° N
Cosmos 2297 Rocket 2.2 18:43:02 10° SSW 18:48:35 60° ESE 18:52:37 19° NE
Cosmos 1607 4.0 18:42:52 10° SW 18:49:00 76° NW 18:54:10 16° NE
Cosmos 1570 Rocket 4.1 18:44:33 10° S 18:49:40 52° ESE 18:52:48 23° NE
BREEZE-M DEB (TANK) 4.2 18:46:21 10° W 18:50:02 62° SSW 18:56:52 20° ESE
CSL-04 Rocket 3.8 18:47:26 25° SE 18:50:15 49° ENE 18:55:20 10° N
Cosmos 2344 4.2 18:44:28 10° SSE 18:50:51 27° ESE 18:51:12 27° ESE
Cosmos 1455 Rocket 2.9 18:46:56 10° N 18:51:16 87° E 18:55:33 10° S
Cosmos 1975 Rocket 4.3 18:48:32 10° SSE 18:50:38 25° SSE 18:50:38 25° SSE
DNEPR-1 R/B 4.1 18:48:01 10° NW 18:52:39 54° NE 18:54:13 39° E
Cosmos 1125 Rocket 4.1 18:49:04 10° NNW 18:54:10 58° WSW 18:59:15 10° S
Cosmos 2221 Rocket 4.1 18:53:07 10° SSW 18:57:32 61° WNW 19:02:01 10° N
Meteor 1-27 4.3 18:56:22 10° NNW 19:02:09 85° W 19:07:58 10° S
PAYLOAD B 4.5 19:05:27 44° E 19:06:15 47° ENE 19:11:36 10° N
Cosmos 2208 Rocket 4.1 19:01:47 10° S 19:06:51 53° ESE 19:07:29 49° E
Terra 3.4 19:11:53 21° NNE 19:11:53 21° NNE 19:13:54 10° N
NOSS 3-3 (C) 3.8 19:07:57 10° SW 19:13:17 79° NW 19:16:44 28° NE
CZ-4B R/B 3.7 19:14:51 84° N 19:14:51 84° N 19:18:41 10° NNW
Cosmos 1980 4.3 19:09:45 10° NW 19:15:19 57° WSW 19:20:48 10° S
Meteor 2-17 Rocket 4.3 19:09:37 10° S 19:15:41 82° E 19:21:46 10° NNE
Resurs 01 Rocket 3.0 19:14:00 10° SSW 19:18:05 38° W 19:22:13 10° NNW
Cosmos 2237 Rocket 2.8 19:15:21 10° NW 19:20:55 56° WSW 19:25:52 13° S
ARIANE 6 FM1 Upper Stage 3.9 19:17:41 10° NW 19:20:14 29° N 19:20:14 29° N
COSMO-SKYMED 1 4.4 19:18:46 10° N 19:22:19 28° WNW 19:25:52 10° SW
Cosmos 44 Rocket 4.0 19:17:56 10° SSW 19:21:21 40° S 19:21:21 40° S
Cosmos 773 Rocket 3.8 19:18:54 10° SSW 19:24:09 76° ESE 19:25:06 59° NE
Cosmos 2228 3.0 19:21:19 10° NNW 19:25:30 74° W 19:25:36 73° WSW
Orbus 7S? 4.0 19:20:18 10° WNW 19:28:21 70° SW 19:28:58 62° S
Cosmos 2150 Rocket 4.0 19:27:39 10° NNW 19:32:49 74° WSW 19:33:58 53° S
Cosmos 2298 Rocket 4.0 19:28:15 10° NNW 19:33:34 78° WSW 19:34:42 55° S
CBERS 1 LM4 rocket 4.5 19:40:47 83° ENE 19:40:47 83° ENE 19:46:14 10° NNW
NOSS 3-3 (A) 4.4 19:37:07 10° WSW 19:42:25 52° NW 19:45:03 32° NNE
SL-16 R/B 2.2 19:39:04 10° NNW 19:44:20 71° NNE 19:44:20 71° NNE
Cosmos 2227 Rocket 2.9 19:41:52 10° SSW 19:45:30 41° S 19:45:30 41° S
SPOT 5 3.3 19:47:23 52° SW 19:48:09 60° W 19:53:09 10° NNW
MOS 1 4.2 19:49:14 74° NNE 19:49:14 74° NNE 19:54:29 10° NNW
Okean O Rocket 4.2 20:02:07 11° N 20:02:07 11° N 20:02:21 10° N
NOSS 3-4 (A) 4.3 19:53:10 10° NW 19:59:44 55° SW 20:02:39 36° S
NOSS 3-4 (C) 4.3 19:53:25 10° NW 20:00:01 55° SW 20:02:53 37° S
CZ-4 R/B 3.8 20:03:09 16° NNW 20:03:09 16° NNW 20:04:01 10° NNW
Cosmos 2034 Rocket 4.1 19:55:04 10° NNW 20:01:12 69° W 20:02:53 48° SSW
Lacrosse 5 rocket 3.8 20:00:41 10° WNW 20:01:48 17° NW 20:01:48 17° NW
CZ-4B R/B 3.8 20:08:36 50° NNW 20:08:36 50° NNW 20:12:32 10° NNW
BREEZE-M DEB (TANK) 4.0 19:55:04 10° W 20:10:45 63° S 20:10:46 63° S
ADEOS 4.4 20:12:43 45° NW 20:12:43 45° NW 20:16:25 10° NNW
Cosmos 1634 Rocket 4.3 20:05:10 10° N 20:10:07 57° N 20:10:07 57° N
ATLAS 2AS CENTAUR R/B 4.0 20:12:17 10° NW 20:18:01 27° N 20:18:40 27° NNE
CZ-4C R/B 3.5 20:16:42 10° W 20:21:01 32° NNW 20:21:07 32° NNW
USA 267 3.7 20:29:08 52° N 20:29:08 52° N 20:35:06 10° WNW
Cosmos 2297 Rocket 3.7 20:27:57 10° WSW 20:32:59 32° NW 20:34:29 28° NNW
Terra 4.3 20:50:29 17° NW 20:50:29 17° NW 20:51:40 10° NNW
Cosmos 2344 4.4 20:56:51 10° SW 21:01:17 37° WSW 21:01:17 37° WSW
